Location: Go�ngahuizen
(53.0821°N, 5.8849°E)
Time: 17:51:52
(UTC+00:00)

STARLINK-29 - Pass Details

Date: 09 April 2020
Orbit: 387 x 401 km, 53.0° (Epoch: 26 May)

Event Time Altitude Azimuth Distance (km) Brightness Sun altitude
Rises 20:17:41 0° 242° (WSW) 2,284 7.1 -15.7°
Reaches altitude 10° 20:19:46 10° 238° (WSW) 1,433 6.0 -16.0°
Maximum altitude 20:22:54 54° 160° (SSE) 488 3.0 -16.3°
Enters shadow 20:23:23 48° 123° (ESE) 531 3.1 -16.4°
